Temp_Advection
nan nan nan nan nan nan nan nan nan nan nan nan nan nan nan nan nan nan nan nan nan nan nan nan nan nan nan nan nan nan nan nan nan nan nan nan nan nan nan nan nan nan nan nan nan
nan 1 0 0 0 0 1 0 1 1 -0 -0 -0 -0 -0 -0 -1 -0 0 0 0 -0 -0 -0 -0 0 -0 -0 -0 0 -0 -1 0 -0 -0 -0 0 -0 -0 -0 -0 1 2 -1 nan
nan 0 0 0 -0 0 1 1 1 1 0 -0 -0 -0 -0 0 -0 -0 0 -0 0 0 -0 -0 -0 -0 -0 -0 -0 0 -0 -0 -0 -0 -0 0 0 -0 -0 -0 -0 0 2 1 nan
nan -0 -0 -0 -0 -0 0 1 1 2 1 -0 -0 -0 -0 -0 0 0 0 -0 0 0 -0 -0 -0 -0 -0 -0 0 -0 -0 -1 -0 0 -0 -0 -0 -0 0 -0 -1 -1 -1 0 nan
nan -0 0 0 0 0 0 0 0 1 1 0 -0 0 -0 -0 -0 -0 0 0 0 0 -0 -0 -0 -0 0 -0 -0 0 -0 -0 -0 0 0 -0 -0 -0 -0 -1 -0 0 1 1 nan
nan -0 0 0 0 0 0 0 0 0 1 1 0 0 0 -0 -0 0 0 -0 0 0 0 0 0 -0 -0 -0 -0 -0 -0 -0 -0 -0 0 -0 -0 -0 -0 0 -0 -0 0 1 nan
nan 0 -0 -0 -0 -0 -0 0 0 0 0 0 0 0 -0 -0 -0 0 0 0 0 0 0 -0 0 0 -0 -0 -0 -0 -0 0 -0 -0 -0 0 -0 -1 -0 -0 -0 -1 -1 0 nan
nan 0 -0 -0 -0 -1 -1 -0 0 0 0 0 0 0 -0 0 -0 0 0 0 0 0 0 -0 0 0 -0 -1 -0 -0 0 0 -0 0 -0 -1 -0 -0 0 0 0 -1 -1 -0 nan
nan 0 0 -0 -0 -1 -1 -1 0 -0 0 0 0 -0 -0 -0 0 0 0 0 0 0 -0 -0 0 -0 0 -0 -0 -0 0 -0 -0 -0 0 -0 -0 -0 0 0 0 -1 -1 -1 nan
nan 0 0 -0 -1 -0 -1 -1 -1 -0 -0 -0 -0 -0 -0 -0 -0 -0 0 0 0 0 -0 -0 -0 -0 -0 0 -0 0 -0 0 -0 -0 0 -0 0 0 0 0 -0 0 -0 -1 nan
nan -0 -0 -0 -0 -0 -1 -2 -2 -1 -1 -0 0 -0 -1 -0 -0 -0 -0 0 -0 0 0 -0 -0 -0 -0 -0 -0 0 0 -0 -0 -0 -0 -0 0 -0 0 -0 -0 -0 -0 -0 nan
nan -0 -0 -0 -0 -0 -0 -2 -1 -1 -1 -0 0 -0 -0 -0 -0 -0 -0 -0 -0 -0 -0 -0 -0 -0 -0 0 -0 -0 -0 -0 -0 -0 -0 -0 -0 -0 -0 -0 -0 -0 0 -0 nan
nan -0 -0 -0 -0 -0 -0 0 0 0 -0 -1 -0 0 -0 0 -0 -0 -0 -0 0 0 -0 -0 -0 -0 0 -0 -0 -0 -0 -0 -0 -0 -0 -0 -0 0 -0 0 -0 -0 -0 -0 nan
nan -0 -1 -0 -0 -1 -0 0 0 -0 0 -1 -0 -0 -0 -0 -0 -0 -0 0 -0 0 0 -0 -0 -0 0 -0 -0 0 -0 -0 0 0 -0 -0 -0 -0 0 0 0 1 0 -1 nan
nan -0 -0 -0 -0 0 1 0 -0 -0 0 -2 -0 -1 -1 -0 -0 -0 -0 -0 0 -0 -0 -0 -0 -0 -0 0 -0 -0 0 0 0 -0 0 -0 0 -0 0 -0 0 0 -0 -0 nan
nan -0 -0 -0 -0 1 1 0 -0 -1 -0 -1 -0 -0 -0 -1 -0 -1 -1 -1 -0 -0 -0 -0 -0 0 -0 -0 0 -0 -0 -0 0 -0 -0 -0 0 -0 -0 -1 -0 -0 -0 1 nan
nan 0 -0 -1 0 0 0 -0 -1 1 0 -0 -0 -0 -0 -1 -0 -1 -0 -0 -0 -1 -1 -1 -0 -0 -0 -0 -0 -0 -0 -0 -0 -0 -0 0 0 -0 -0 -0 -1 -1 -0 -0 nan
nan -0 -0 0 0 0 0 -1 0 -0 -0 -0 -0 -0 -0 -0 -0 -1 0 -0 -0 -0 0 -0 -1 0 -0 -0 0 0 -0 -0 0 0 -0 0 -0 -0 -0 -0 0 0 0 0 nan
nan -0 -0 0 -0 -0 -1 -1 -0 -0 -0 0 -0 -0 -0 -0 -0 -0 -0 0 -0 0 -0 -0 -1 -0 0 -0 -0 0 -0 0 -0 -0 0 -0 -0 -0 -0 -0 0 0 0 1 nan
nan 0 -0 -0 -0 -1 -1 0 0 0 0 -0 -0 -0 -0 -0 -0 -0 -0 0 -0 0 -0 -0 -1 -0 -0 -0 0 -0 0 -0 0 0 -0 -0 0 -0 -1 -1 -0 0 -0 -0 nan
nan -0 -0 -0 -1 -3 -1 -0 -0 -0 -0 -0 0 0 0 0 0 0 -0 -0 0 -0 -0 0 -0 -1 -0 -0 0 -0 -0 0 0 -0 0 0 -0 -0 -0 -0 -0 0 -1 -1 nan
nan -0 -0 -0 -2 -1 0 0 -0 -1 -0 -0 -0 0 0 0 0 -0 -0 -0 0 0 -0 -0 0 -0 -0 -0 0 -0 -0 -0 -0 -0 0 0 -0 -0 -1 -1 -1 -0 -0 -0 nan
nan -0 -0 -2 -1 -0 -0 -0 -0 -0 -0 -0 -0 -0 -0 0 0 -0 -0 -0 -0 0 0 0 -0 -0 -0 0 -0 -0 -0 0 -0 -0 -0 0 0 -0 -0 -1 -1 -1 1 1 nan
nan -0 0 -2 -1 -0 -0 -0 -0 -0 -0 -0 -0 -0 -0 -0 -0 -0 -1 -0 -0 -0 0 -0 0 -0 -0 -0 -0 -0 -0 -0 0 0 -0 -0 -0 -1 -0 -1 -1 -1 1 1 nan
nan -0 -0 -0 0 -0 -0 -0 -0 -0 -0 -0 -0 -0 0 0 -1 -0 -0 -0 -0 -0 -1 -0 -0 -0 -1 -0 0 0 0 -0 0 0 -0 0 -0 -0 -0 -0 -0 -1 -0 1 nan
nan -0 -0 -0 -0 -1 -0 -0 -0 -0 0 0 -0 -0 1 -0 -1 -0 -0 0 -0 -0 -1 -0 -0 -0 -0 -0 0 -0 -0 -0 0 0 -0 -0 -0 -0 -0 -0 -1 -1 -1 -1 nan
nan nan nan nan nan nan nan nan nan nan nan nan nan nan nan nan nan nan nan nan nan nan nan nan nan nan nan nan nan nan nan nan nan nan nan nan nan nan nan nan nan nan nan nan nan
Wind_Speed
24 24 26 26 26 25 25 25 24 24 23 23 22 22 22 23 26 25 17 22 9 8 10 10 16 16 16 10 17 17 6 13 9 11 6 10 5 20 7 10 5 13 20 33 41
25 26 27 27 27 27 27 27 26 25 24 23 23 22 22 21 24 13 4 12 4 4 11 15 15 15 11 9 12 8 7 15 5 5 3 14 5 4 3 5 3 9 23 33 39
25 26 28 28 29 29 28 26 27 26 25 24 22 20 18 18 17 2 9 12 11 17 14 12 13 14 13 12 11 7 7 11 4 10 11 3 10 3 7 5 5 7 32 40 39
26 27 28 29 30 29 29 29 27 28 25 23 18 16 10 7 2 9 10 10 14 19 16 10 4 4 4 10 13 4 7 14 4 9 5 4 1 8 2 6 15 9 34 35 33
26 27 29 30 30 30 30 28 27 26 22 17 17 10 7 4 6 11 13 11 13 17 12 5 8 4 4 5 6 9 3 11 14 8 11 12 8 8 10 16 9 4 22 26 27
26 28 29 30 31 31 31 28 27 24 16 13 12 3 4 4 8 10 10 14 18 13 10 4 3 8 3 4 4 7 7 17 13 8 9 7 15 9 3 6 8 5 10 19 25
25 27 29 31 32 33 30 28 27 21 11 7 8 1 6 7 8 8 13 17 14 9 9 6 6 5 6 4 7 11 5 4 5 7 7 8 12 14 12 8 7 10 7 19 24
27 29 31 32 32 31 30 27 27 15 10 2 4 4 6 11 10 20 15 11 6 8 6 2 3 2 5 10 4 4 4 2 3 8 6 17 7 10 19 12 10 16 10 11 25
27 30 31 31 30 27 29 29 22 4 14 2 3 5 7 13 19 10 15 12 7 5 2 1 1 2 2 1 3 3 2 5 4 6 5 8 5 10 19 16 9 15 13 10 25
28 32 32 31 27 25 28 27 15 8 7 3 3 2 6 16 17 17 15 10 9 6 1 4 2 1 2 3 5 4 4 1 3 3 9 5 5 4 22 24 19 16 9 11 21
29 32 31 27 23 26 28 25 26 9 12 4 6 5 14 17 18 20 13 9 5 3 2 1 1 4 7 7 3 1 1 3 3 4 5 9 7 6 16 17 18 21 8 9 5
29 32 29 24 18 25 23 25 18 7 9 3 7 11 14 16 13 17 7 7 5 4 1 1 7 6 5 6 7 4 5 2 6 6 3 6 9 12 10 13 22 13 17 17 3
30 31 29 23 16 24 16 25 16 1 3 10 7 8 19 19 9 9 16 10 2 4 4 3 6 6 7 3 7 7 8 4 4 8 5 3 3 6 8 7 20 25 25 20 1
30 30 25 25 13 21 17 24 11 2 4 9 8 10 21 23 2 12 18 5 4 4 5 4 4 4 3 4 6 1 3 7 4 1 1 4 3 4 7 10 12 22 29 31 21
29 27 17 26 20 22 23 14 3 2 5 15 7 11 24 15 13 19 19 3 3 4 2 4 5 4 3 1 6 5 6 5 6 6 3 2 3 5 7 9 11 11 22 26 20
28 24 14 26 23 22 21 11 1 6 3 7 8 12 12 13 9 20 12 15 3 4 3 7 6 2 4 3 1 5 4 4 4 4 1 5 5 4 7 19 12 13 24 28 27
26 20 14 27 26 22 19 2 5 6 6 9 7 13 5 11 8 9 5 10 6 7 7 7 5 3 1 4 3 5 4 2 3 2 4 3 6 8 1 4 16 19 24 26 28
25 14 12 24 22 19 13 6 9 4 3 6 7 9 6 13 6 9 8 4 5 5 2 4 7 5 7 2 2 3 4 4 5 4 3 3 3 5 5 10 15 16 23 32 32
21 9 14 23 18 13 5 6 5 3 5 6 8 5 5 7 3 7 6 6 4 2 2 3 5 6 5 4 3 4 1 1 5 2 3 3 5 8 6 3 7 20 26 31 36
16 2 24 21 14 6 7 5 1 4 5 3 4 3 5 7 9 5 3 3 6 7 2 4 5 3 6 4 2 4 3 2 3 3 2 2 1 3 11 10 4 13 22 27 31
9 1 23 15 7 13 4 2 2 9 12 3 3 4 4 2 4 4 5 1 5 8 7 1 3 5 7 1 2 3 3 2 2 1 2 3 1 7 7 10 7 9 24 29 30
4 4 22 5 9 4 2 3 8 10 12 5 4 3 4 4 4 3 3 4 15 15 6 3 2 4 4 9 6 4 4 3 3 3 2 2 1 7 10 12 13 4 26 33 38
4 2 19 14 4 4 4 5 6 9 6 5 4 5 5 4 5 4 5 8 14 10 3 4 2 5 6 3 2 4 3 2 2 1 2 2 1 10 13 14 22 16 21 30 34
2 2 7 16 9 4 2 5 5 11 2 8 3 5 6 3 1 8 10 6 27 10 6 6 2 4 3 6 1 4 3 5 2 1 1 2 2 12 16 15 20 28 13 16 26
3 2 3 2 5 4 3 1 4 7 4 9 4 6 5 3 6 2 4 8 8 5 8 3 3 2 9 17 13 10 5 4 2 2 1 6 3 7 10 11 16 23 23 13 13
3 2 4 3 2 4 6 4 4 3 2 4 3 10 5 4 6 13 7 0 7 5 6 4 3 4 4 4 7 8 3 4 5 5 6 8 5 2 9 9 25 26 24 20 12
6 6 4 6 3 4 2 4 4 6 5 4 11 5 9 10 16 26 27 23 17 6 3 2 2 4 5 7 2 8 13 4 5 12 4 4 5 5 5 10 19 24 24 19 17
Wind_Direction
352 351 347 346 344 343 340 338 333 329 327 325 322 318 314 313 309 311 318 319 296 313 300 304 282 247 244 251 228 213 231 226 230 200 208 202 190 236 298 256 210 186 162 161 160
353 351 348 347 346 345 340 338 335 330 327 325 323 319 317 319 313 313 352 18 271 285 328 291 282 252 232 222 223 199 220 235 204 234 253 257 286 24 307 303 305 181 143 162 159
353 353 351 349 348 346 341 337 333 330 326 324 319 316 319 316 321 189 350 334 317 323 331 302 280 255 216 223 201 204 224 232 225 230 302 204 275 344 1 267 352 221 156 166 167
356 355 354 353 350 346 342 338 334 330 327 325 321 323 325 305 341 358 339 319 322 323 325 294 268 220 224 212 230 254 213 247 292 225 328 340 336 254 185 289 341 212 168 168 173
358 359 356 352 349 345 341 338 334 331 329 328 332 330 335 316 280 342 339 339 333 343 350 315 328 293 215 334 241 238 241 253 252 221 252 293 280 297 250 257 318 139 178 176 181
0 359 357 352 348 346 343 342 337 332 335 333 335 332 317 294 331 336 329 332 334 318 335 329 280 345 283 274 278 338 237 239 253 221 228 297 278 307 248 192 276 22 204 194 186
2 0 356 352 348 346 347 345 341 332 338 338 355 357 287 276 351 342 320 318 328 336 320 334 309 262 325 281 336 292 292 252 220 208 176 191 269 235 241 294 255 325 344 221 196
2 358 355 351 347 345 350 348 336 325 353 296 354 336 279 355 327 327 337 345 321 318 312 356 307 257 255 315 292 229 217 160 246 189 193 131 269 241 232 218 244 291 299 245 212
1 358 354 349 349 347 352 350 346 26 347 229 353 298 305 332 345 350 350 313 307 299 7 68 262 323 235 278 360 296 197 190 273 201 172 160 181 235 190 190 206 267 284 319 205
360 355 353 349 353 349 351 356 8 346 78 87 10 327 321 325 338 344 347 336 331 251 28 85 61 65 279 171 200 188 194 201 230 245 197 179 186 101 178 186 193 235 246 313 205
358 353 353 353 357 351 352 15 28 19 39 351 297 262 302 328 323 340 328 334 350 242 271 112 354 242 209 235 294 67 76 332 316 300 310 200 169 201 175 189 179 201 234 275 253
356 350 354 357 358 356 358 29 10 325 318 316 312 290 335 335 311 344 348 347 335 299 35 79 261 235 212 253 240 242 252 235 301 277 240 268 204 199 186 177 180 182 241 215 75
353 350 351 359 356 357 1 2 358 328 275 309 326 306 331 332 322 339 351 337 326 331 327 195 255 263 225 151 218 232 231 188 248 347 290 282 300 194 192 191 180 185 219 211 30
350 349 351 2 1 3 351 347 354 85 62 339 0 5 350 346 48 4 349 322 348 307 319 260 303 359 272 221 147 155 226 213 207 266 269 344 269 238 184 186 193 195 186 197 197
347 347 358 6 3 356 347 357 55 31 55 324 337 341 359 14 344 349 357 349 298 289 325 270 318 359 349 7 160 202 160 143 184 170 68 318 102 272 178 197 197 184 189 203 198
345 345 357 4 6 357 350 341 80 44 302 331 329 336 352 355 2 345 4 17 306 331 309 256 265 318 230 312 240 146 87 53 102 137 90 221 145 258 196 212 188 184 190 192 203
344 344 360 5 354 350 345 0 44 80 330 338 332 330 344 346 336 355 356 32 31 6 7 331 337 291 195 341 24 83 75 60 55 27 209 67 170 241 252 205 193 191 190 181 186
344 344 10 1 352 348 350 60 66 279 350 295 319 320 14 8 343 337 358 8 17 63 1 18 335 24 345 324 218 178 137 148 159 156 203 114 266 245 233 221 204 194 179 186 192
343 343 3 360 357 359 46 48 174 300 304 311 331 1 339 355 344 5 6 9 30 17 85 5 281 324 300 316 148 282 318 219 101 341 73 204 276 302 310 33 159 161 167 176 183
341 337 12 1 10 45 65 111 123 11 327 5 9 10 344 328 1 29 337 351 337 9 183 272 295 279 313 322 239 125 202 54 13 114 178 319 26 349 340 348 288 164 174 181 183
345 60 5 4 34 58 95 220 327 359 5 355 331 299 345 328 283 294 269 346 343 325 328 249 214 290 341 75 211 58 340 20 114 140 184 132 360 358 323 295 292 187 182 177 182
28 47 7 18 54 29 50 346 347 359 1 4 346 360 3 335 303 293 288 228 11 348 330 290 244 281 253 279 309 278 174 150 116 222 212 121 326 14 346 327 340 263 186 186 182
66 70 27 48 74 344 333 353 16 7 4 359 336 12 21 323 338 252 319 307 353 339 337 303 319 329 356 72 29 50 7 280 154 91 296 122 216 26 1 351 356 2 176 172 173
18 34 48 55 66 120 46 357 350 350 349 353 304 27 356 325 333 299 303 307 327 304 299 355 266 213 217 234 104 299 336 319 127 331 161 97 321 358 355 351 355 8 57 160 167
52 78 52 355 3 77 72 304 337 358 349 351 349 358 323 310 310 255 300 319 298 353 4 92 265 224 260 271 257 240 233 272 168 168 323 158 83 359 348 333 355 15 33 100 145
88 142 107 94 15 67 359 322 323 324 263 303 302 307 285 207 206 281 283 282 253 334 348 341 287 327 301 306 51 97 337 228 65 102 100 116 101 27 338 3 22 14 16 27 74
98 109 110 22 42 73 252 260 297 353 308 308 319 316 303 274 281 277 271 261 248 277 304 311 311 357 282 322 235 37 347 29 101 45 344 69 22 39 339 26 26 14 8 19 41
Height
1529 1525 1521 1517 1513 1509 1505 1501 1497 1494 1490 1487 1484 1482 1479 1475 1471 1468 1463 1461 1459 1458 1457 1459 1459 1460 1460 1459 1459 1461 1461 1454 1451 1457 1453 1452 1455 1454 1454 1452 1450 1449 1448 1454 1462
1528 1524 1520 1515 1511 1507 1502 1498 1494 1491 1488 1485 1482 1479 1475 1472 1467 1463 1461 1461 1460 1458 1457 1456 1455 1456 1457 1455 1456 1456 1455 1449 1449 1449 1451 1451 1454 1455 1456 1451 1448 1446 1447 1457 1462
1528 1524 1519 1514 1509 1505 1500 1497 1492 1488 1485 1482 1479 1476 1473 1470 1466 1462 1463 1462 1459 1457 1454 1453 1451 1451 1452 1451 1449 1450 1449 1450 1447 1450 1453 1455 1455 1455 1458 1454 1452 1448 1447 1454 1461
1527 1522 1518 1512 1508 1503 1499 1494 1489 1485 1482 1479 1475 1473 1470 1470 1470 1464 1462 1461 1458 1457 1453 1450 1448 1447 1448 1447 1447 1450 1447 1448 1448 1449 1452 1453 1451 1453 1457 1457 1455 1449 1450 1454 1463
1526 1521 1516 1511 1507 1501 1496 1491 1486 1482 1478 1475 1473 1471 1470 1469 1466 1464 1462 1460 1456 1455 1452 1449 1449 1447 1445 1445 1445 1445 1446 1447 1447 1448 1452 1453 1453 1456 1455 1458 1455 1451 1455 1457 1463
1525 1520 1515 1510 1505 1500 1494 1489 1484 1479 1476 1474 1471 1470 1471 1470 1464 1463 1462 1459 1455 1454 1451 1449 1449 1449 1447 1446 1447 1445 1442 1444 1446 1446 1450 1449 1449 1455 1450 1451 1453 1455 1456 1461 1464
1524 1519 1513 1508 1502 1497 1492 1488 1482 1478 1476 1474 1472 1471 1471 1468 1464 1463 1462 1458 1454 1453 1452 1450 1450 1451 1450 1446 1446 1443 1443 1442 1442 1445 1448 1453 1449 1444 1450 1449 1453 1456 1459 1460 1464
1524 1518 1512 1506 1501 1495 1490 1485 1479 1475 1475 1473 1472 1472 1468 1467 1465 1462 1459 1456 1453 1452 1451 1450 1450 1450 1449 1447 1446 1442 1441 1445 1439 1441 1444 1451 1450 1444 1448 1450 1451 1459 1461 1459 1463
1522 1517 1512 1505 1499 1493 1489 1484 1476 1473 1472 1471 1473 1473 1469 1467 1464 1461 1458 1455 1453 1451 1450 1450 1451 1450 1449 1449 1449 1444 1448 1444 1440 1436 1439 1444 1448 1444 1443 1449 1454 1460 1458 1458 1463
1520 1515 1510 1503 1497 1492 1488 1483 1475 1473 1470 1472 1471 1476 1470 1467 1462 1460 1456 1454 1452 1450 1450 1450 1451 1451 1449 1448 1456 1449 1443 1440 1442 1434 1434 1440 1442 1437 1441 1444 1449 1457 1463 1459 1462
1519 1513 1509 1502 1497 1490 1485 1479 1477 1475 1473 1477 1476 1473 1469 1466 1462 1459 1455 1453 1451 1450 1451 1452 1453 1452 1448 1448 1444 1444 1445 1444 1441 1436 1433 1434 1440 1439 1442 1445 1449 1453 1455 1459 1462
1519 1512 1507 1502 1497 1491 1487 1484 1488 1490 1482 1475 1474 1472 1469 1466 1462 1459 1457 1454 1451 1452 1449 1453 1450 1444 1444 1446 1446 1446 1447 1448 1441 1437 1435 1432 1436 1436 1438 1439 1444 1446 1455 1462 1459
1517 1511 1506 1502 1497 1493 1488 1488 1487 1487 1487 1476 1475 1472 1470 1466 1463 1460 1457 1453 1451 1450 1450 1452 1443 1440 1440 1442 1445 1442 1444 1445 1444 1439 1435 1431 1431 1429 1433 1435 1440 1448 1453 1457 1459
1516 1510 1505 1501 1496 1493 1490 1487 1486 1485 1498 1482 1477 1476 1472 1464 1465 1463 1458 1455 1452 1452 1448 1447 1440 1438 1436 1438 1441 1450 1441 1441 1442 1450 1447 1437 1445 1430 1427 1431 1434 1440 1447 1453 1456
1515 1509 1505 1499 1497 1493 1491 1487 1486 1487 1529 1488 1483 1480 1475 1473 1470 1465 1460 1454 1454 1453 1453 1447 1442 1441 1441 1437 1437 1441 1439 1439 1440 1452 1451 1441 1446 1433 1427 1432 1432 1436 1439 1445 1448
1514 1508 1505 1502 1497 1493 1488 1485 1486 1503 1540 1494 1489 1486 1480 1476 1472 1468 1464 1458 1455 1454 1451 1448 1441 1442 1440 1435 1435 1436 1439 1442 1443 1444 1467 1448 1443 1435 1429 1415 1426 1431 1437 1441 1448
1513 1508 1504 1500 1496 1492 1488 1485 1503 1528 1506 1501 1496 1491 1484 1484 1476 1474 1474 1469 1473 1476 1474 1453 1444 1439 1438 1438 1434 1437 1449 1464 1463 1471 1468 1437 1442 1423 1419 1416 1416 1422 1428 1438 1447
1512 1508 1505 1501 1496 1492 1487 1489 1523 1513 1508 1502 1498 1492 1490 1487 1484 1480 1478 1477 1474 1480 1485 1478 1463 1443 1440 1440 1443 1441 1446 1467 1478 1473 1453 1431 1441 1424 1412 1411 1413 1419 1424 1431 1440
1511 1508 1506 1501 1495 1491 1489 1518 1530 1512 1509 1504 1500 1498 1498 1494 1497 1489 1488 1481 1478 1479 1490 1489 1462 1443 1442 1442 1440 1447 1452 1443 1469 1463 1453 1438 1429 1417 1412 1411 1413 1417 1424 1431 1435
1510 1508 1506 1501 1496 1493 1498 1519 1514 1511 1508 1506 1509 1504 1503 1502 1504 1498 1497 1484 1484 1479 1477 1480 1474 1447 1441 1438 1438 1442 1443 1452 1453 1473 1449 1441 1429 1424 1426 1423 1419 1419 1422 1429 1435
1509 1508 1507 1503 1501 1498 1519 1522 1513 1511 1510 1510 1509 1509 1506 1509 1507 1501 1496 1485 1483 1479 1474 1474 1474 1455 1447 1443 1446 1449 1458 1451 1448 1449 1446 1429 1439 1434 1434 1430 1424 1418 1419 1425 1432
1510 1512 1510 1505 1506 1514 1522 1516 1514 1512 1511 1510 1508 1508 1508 1505 1507 1508 1497 1488 1483 1482 1486 1475 1471 1468 1450 1445 1447 1446 1444 1447 1463 1455 1449 1445 1447 1441 1436 1430 1422 1415 1417 1422 1427
1512 1515 1513 1506 1525 1527 1519 1518 1515 1514 1513 1511 1511 1509 1510 1508 1516 1501 1494 1486 1484 1483 1485 1479 1482 1479 1454 1446 1446 1450 1447 1448 1446 1447 1451 1444 1446 1442 1440 1435 1427 1419 1417 1420 1425
1516 1519 1515 1515 1521 1523 1525 1523 1520 1516 1514 1515 1513 1510 1510 1510 1506 1505 1499 1489 1486 1482 1480 1477 1482 1476 1472 1461 1456 1462 1453 1449 1442 1449 1443 1447 1446 1445 1446 1445 1433 1422 1418 1419 1427
1517 1520 1519 1528 1524 1524 1524 1525 1523 1519 1516 1514 1513 1513 1513 1523 1514 1510 1499 1493 1486 1482 1480 1482 1480 1479 1462 1452 1451 1452 1461 1456 1455 1444 1444 1448 1451 1456 1459 1454 1446 1436 1430 1430 1431
1520 1520 1519 1522 1524 1524 1527 1528 1524 1520 1518 1517 1516 1512 1510 1515 1510 1505 1502 1502 1495 1485 1485 1482 1485 1472 1466 1447 1444 1447 1453 1450 1449 1448 1451 1453 1459 1462 1462 1458 1446 1444 1442 1440 1438
1521 1521 1519 1524 1527 1528 1530 1528 1525 1521 1518 1516 1514 1513 1508 1502 1498 1493 1492 1492 1491 1491 1491 1488 1484 1479 1475 1451 1442 1454 1468 1456 1462 1463 1460 1457 1465 1463 1463 1458 1455 1451 1449 1447 1443